This demonstration page uses our WeatherBlox Daily Observations layout. Learn more.

Left ArrowRight Arrow

38.89511, -77.03637

Hourly Observations for July 20, 2015

Temp ( °F °C ) Dew Point ( °F °C ) Humidity (%) Winds ( mph kmh ) Pressure ( in mb ) Visibility ( mi km ) Precip ( " mm )
12:52 am 00:52 Mostly Cloudy 85 29.4 77 25 77 77 SSW 5 7 29.80 1009 10 16 N/A
1:52 am 01:52 Mostly Cloudy 84 28.9 78 25.6 82 82 S 3 6 29.79 1009 10 16 N/A
2:52 am 02:52 Mostly Cloudy 83 28.3 77 25 82 82 S 7 11 29.78 1009 10 16 N/A
3:52 am 03:52 Cloudy 83 28.3 76 24.4 79 79 SSW 3 6 29.77 1008 10 16 N/A
4:52 am 04:52 Cloudy 83 28.3 76 24.4 79 79 SW 6 9 29.77 1008 10 16 N/A
5:52 am 05:52 Mostly Cloudy 83 28.3 76 24.4 79 79 SSW 3 6 29.78 1008 10 16 N/A
6:52 am 06:52 Partly Cloudy 85 29.4 71 21.7 63 63 W 6 9 29.79 1009 10 16 N/A
7:52 am 07:52 Partly Cloudy 87 30.6 70 21.1 57 57 WNW 9 15 29.78 1009 10 16 N/A
8:52 am 08:52 Partly Cloudy 87 30.6 69 20.6 55 55 WNW 13 20 29.80 1009 10 16 N/A
9:52 am 09:52 Partly Cloudy 88 31.1 69 20.6 54 54 N 8 13 29.80 1009 10 16 N/A
10:52 am 10:52 Partly Cloudy 88 31.1 70 21.1 55 55 NNW 9 15 29.80 1009 10 16 N/A
11:52 am 11:52 Mostly Cloudy 93 33.9 71 21.7 49 49 NNW 7 11 29.79 1009 10 16 N/A
12:52 pm 12:52 Partly Cloudy 93 33.9 72 22.2 50 50 VRB 7 11 29.78 1009 10 16 N/A
1:52 pm 13:52 Partly Cloudy 95 35 70 21.1 44 44 NNW 13 20 29.78 1008 10 16 N/A
2:52 pm 14:52 Partly Cloudy 94 34.4 71 21.7 48 48 N 7 11 29.77 1008 10 16 N/A
3:52 pm 15:52 Partly Cloudy 95 35 71 21.7 46 46 WNW 9 15 29.75 1007 10 16 N/A
4:52 pm 16:52 Mostly Cloudy 95 35 70 21.1 44 44 WNW 10 17 29.73 1007 10 16 N/A
5:52 pm 17:52 Partly Cloudy 94 34.4 70 21.1 46 46 SW 8 13 29.72 1006 10 16 N/A
6:52 pm 18:52 Mostly Cloudy 93 33.9 71 21.7 49 49 SW 5 7 29.71 1006 10 16 N/A
7:52 pm 19:52 Mostly Cloudy 92 33.3 71 21.7 51 51 WSW 6 9 29.71 1006 10 16 N/A
8:52 pm 20:52 Mostly Cloudy 90 32.2 72 22.2 56 56 SSW 7 11 29.72 1007 10 16 N/A
9:52 pm 21:52 Partly Cloudy 89 31.7 74 23.3 61 61 SSW 7 11 29.74 1007 10 16 N/A
10:52 pm 22:52 Mostly Cloudy 88 31.1 75 23.9 66 66 SSW 3 6 29.72 1007 10 16 N/A
11:52 pm 23:52 Mostly Cloudy 85 29.4 76 24.4 75 75 S 6 9 29.72 1006 10 16 N/A

Powered by AerisWeather